Location: Zagreb
(45.8000°N, 16.0000°E)
Time: 20:58:39
(UTC+01:00)

YUBILEINY - Pass Details

Date: 31 October 2020
Orbit: 1478 x 1509 km, 82.5° (Epoch: 01 December)

Event Time Altitude Azimuth Distance (km) Brightness Sun altitude
Rises 23:04:09 0° 343° (NNW) 4,611 ? -57.8°
Reaches altitude 10° 23:07:36 10° 331° (NNW) 3,626 ? -58.0°
Enters shadow 23:09:07 15° 324° (NW) 3,255 ? -58.0°
